Time,TemperatureF,DewpointF,PressureIn,WindDirection,WindDirectionDegrees,WindSpeedMPH,WindSpeedGustMPH,Humidity,HourlyPrecipIn,Conditions,Clouds,dailyrainin,SolarRadiationWatts/m^2,SoftwareType,DateUTC
2013-03-31 00:01:00,43.0,43.0,-100.00,North,0,0.0,4.0,100,0.00,,,0.00,0.000000,,2013-03-31 07:01:00,
2013-03-31 00:33:00,40.0,40.0,-100.00,SSE,161,0.0,3.0,100,0.00,,,0.00,0.000000,,2013-03-31 07:33:00,
2013-03-31 01:01:00,40.0,40.0,-100.00,SSE,161,0.0,3.0,100,0.00,,,0.00,0.000000,,2013-03-31 08:01:00,
2013-03-31 01:22:00,38.0,38.0,-100.00,ENE,74,0.0,3.0,100,0.00,,,0.00,0.000000,,2013-03-31 08:22:00,
2013-03-31 01:32:00,38.0,38.0,-100.00,ENE,74,0.0,3.0,100,0.00,,,0.00,0.000000,,2013-03-31 08:32:00,
2013-03-31 02:03:00,37.0,37.0,-100.00,East,97,0.0,3.0,100,0.00,,,0.00,0.000000,,2013-03-31 09:03:00,
2013-03-31 02:33:00,37.0,37.0,-100.00,East,97,0.0,3.0,100,0.00,,,0.00,0.000000,,2013-03-31 09:33:00,
2013-03-31 02:43:00,37.0,37.0,-100.00,East,97,0.0,3.0,100,0.00,,,0.00,0.000000,,2013-03-31 09:43:00,
2013-03-31 02:53:00,37.0,37.0,-100.00,East,97,0.0,3.0,100,0.00,,,0.00,0.000000,,2013-03-31 09:53:00,
2013-03-31 03:33:00,35.0,35.0,-100.00,NNE,13,0.0,0.0,100,0.00,,,0.00,0.000000,,2013-03-31 10:33:00,
2013-03-31 03:42:00,35.0,35.0,-100.00,NNE,13,0.0,0.0,100,0.00,,,0.00,0.000000,,2013-03-31 10:42:00,
2013-03-31 03:53:00,35.0,35.0,-100.00,NNE,13,0.0,0.0,100,0.00,,,0.00,0.000000,,2013-03-31 10:53:00,
2013-03-31 04:02:00,35.0,35.0,-100.00,NNE,13,0.0,0.0,100,0.00,,,0.00,0.000000,,2013-03-31 11:02:00,
2013-03-31 04:33:00,35.0,35.0,-100.00,ENE,76,0.0,3.0,100,0.00,,,0.00,0.000000,,2013-03-31 11:33:00,
2013-03-31 04:42:00,35.0,35.0,-100.00,ENE,76,0.0,3.0,100,0.00,,,0.00,0.000000,,2013-03-31 11:42:00,
2013-03-31 04:52:00,35.0,35.0,-100.00,ENE,76,0.0,3.0,100,0.00,,,0.00,0.000000,,2013-03-31 11:52:00,
2013-03-31 05:02:00,35.0,35.0,-100.00,ENE,76,0.0,3.0,100,0.00,,,0.00,0.000000,,2013-03-31 12:02:00,
2013-03-31 05:22:00,34.0,34.0,-100.00,NNW,327,0.0,3.0,100,0.00,,,0.00,0.000000,,2013-03-31 12:22:00,
2013-03-31 05:33:00,34.0,34.0,-100.00,NNW,327,0.0,3.0,100,0.00,,,0.00,0.000000,,2013-03-31 12:33:00,
2013-03-31 05:42:00,34.0,34.0,-100.00,NNW,327,0.0,3.0,100,0.00,,,0.00,0.000000,,2013-03-31 12:42:00,
2013-03-31 05:52:00,34.0,34.0,-100.00,NNW,327,0.0,3.0,100,0.00,,,0.00,0.000000,,2013-03-31 12:52:00,
2013-03-31 06:32:00,33.0,33.0,-100.00,East,93,0.0,3.0,100,-99.99,,,0.00,0.000000,,2013-03-31 13:32:00,
2013-03-31 07:02:00,33.0,33.0,-100.00,East,93,0.0,3.0,100,-99.99,,,0.00,0.000000,,2013-03-31 14:02:00,
2013-03-31 07:23:00,33.0,33.0,-100.00,NNW,346,0.0,0.0,100,0.00,,,0.00,0.000000,,2013-03-31 14:23:00,
2013-03-31 07:33:00,33.0,33.0,-100.00,NNW,346,0.0,0.0,100,0.00,,,0.00,0.000000,,2013-03-31 14:33:00,
2013-03-31 07:43:00,33.0,33.0,-100.00,NNW,346,0.0,0.0,100,0.00,,,0.00,0.000000,,2013-03-31 14:43:00,
2013-03-31 07:52:00,33.0,33.0,-100.00,NNW,346,0.0,0.0,100,0.00,,,0.00,0.000000,,2013-03-31 14:52:00,
2013-03-31 08:34:00,43.0,42.0,-100.00,SE,134,0.0,0.0,97,-99.99,,,0.00,146.000000,,2013-03-31 15:34:00,
2013-03-31 08:43:00,43.0,42.0,-100.00,SE,134,0.0,0.0,97,-99.99,,,0.00,146.000000,,2013-03-31 15:43:00,
2013-03-31 08:53:00,43.0,42.0,-100.00,SE,134,0.0,0.0,97,-99.99,,,0.00,146.000000,,2013-03-31 15:53:00,
2013-03-31 09:02:00,43.0,42.0,-100.00,SE,134,0.0,0.0,97,-99.99,,,0.00,146.000000,,2013-03-31 16:02:00,
2013-03-31 09:33:00,58.0,35.0,-100.00,SSW,208,5.0,0.0,42,0.00,,,0.00,319.000000,,2013-03-31 16:33:00,
2013-03-31 09:43:00,58.0,35.0,-100.00,SSW,208,5.0,0.0,42,0.00,,,0.00,319.000000,,2013-03-31 16:43:00,
2013-03-31 09:53:00,58.0,35.0,-100.00,SSW,208,5.0,0.0,42,0.00,,,0.00,319.000000,,2013-03-31 16:53:00,
2013-03-31 10:02:00,58.0,35.0,-100.00,SSW,208,5.0,0.0,42,0.00,,,0.00,319.000000,,2013-03-31 17:02:00,
2013-03-31 10:32:00,61.0,44.0,-100.00,South,190,8.0,13.0,53,0.00,,,0.00,494.000000,,2013-03-31 17:32:00,
2013-03-31 10:43:00,61.0,44.0,-100.00,South,190,8.0,13.0,53,0.00,,,0.00,494.000000,,2013-03-31 17:43:00,
2013-03-31 10:52:00,61.0,44.0,-100.00,South,190,8.0,13.0,53,0.00,,,0.00,494.000000,,2013-03-31 17:52:00,
2013-03-31 11:02:00,61.0,44.0,-100.00,South,190,8.0,13.0,53,0.00,,,0.00,494.000000,,2013-03-31 18:02:00,
2013-03-31 11:33:00,60.0,43.0,-100.00,SSW,194,10.0,15.0,53,0.00,,,0.00,636.000000,,2013-03-31 18:33:00,
2013-03-31 11:42:00,60.0,43.0,-100.00,SSW,194,10.0,15.0,53,0.00,,,0.00,636.000000,,2013-03-31 18:42:00,
2013-03-31 11:53:00,60.0,43.0,-100.00,SSW,194,10.0,15.0,53,0.00,,,0.00,636.000000,,2013-03-31 18:53:00,
2013-03-31 12:02:00,60.0,43.0,-100.00,SSW,194,10.0,15.0,53,0.00,,,0.00,636.000000,,2013-03-31 19:02:00,
2013-03-31 12:33:00,63.0,45.0,-100.00,WSW,248,9.0,20.0,51,0.00,,,0.00,972.000000,,2013-03-31 19:33:00,
2013-03-31 12:43:00,63.0,45.0,-100.00,WSW,248,9.0,20.0,51,0.00,,,0.00,972.000000,,2013-03-31 19:43:00,
2013-03-31 12:54:00,63.0,45.0,-100.00,WSW,248,9.0,20.0,51,0.00,,,0.00,972.000000,,2013-03-31 19:54:00,
2013-03-31 13:02:00,63.0,45.0,-100.00,WSW,248,9.0,20.0,51,0.00,,,0.00,972.000000,,2013-03-31 20:02:00,
2013-03-31 13:34:00,63.0,45.0,-100.00,WSW,254,10.0,17.0,52,0.00,,,0.00,855.000000,,2013-03-31 20:34:00,
2013-03-31 13:43:00,63.0,45.0,-100.00,WSW,254,10.0,17.0,52,0.00,,,0.00,855.000000,,2013-03-31 20:43:00,
2013-03-31 13:52:00,63.0,45.0,-100.00,WSW,254,10.0,17.0,52,0.00,,,0.00,855.000000,,2013-03-31 20:52:00,
2013-03-31 14:02:00,63.0,45.0,-100.00,WSW,254,10.0,17.0,52,0.00,,,0.00,855.000000,,2013-03-31 21:02:00,
2013-03-31 14:34:00,67.0,44.0,-100.00,WSW,242,7.0,23.0,44,0.00,,,0.00,898.000000,,2013-03-31 21:34:00,
2013-03-31 14:43:00,67.0,44.0,-100.00,WSW,242,7.0,23.0,44,0.00,,,0.00,898.000000,,2013-03-31 21:43:00,
2013-03-31 14:53:00,67.0,44.0,-100.00,WSW,242,7.0,23.0,44,0.00,,,0.00,898.000000,,2013-03-31 21:53:00,
2013-03-31 15:02:00,67.0,44.0,-100.00,WSW,242,7.0,23.0,44,0.00,,,0.00,898.000000,,2013-03-31 22:02:00,
2013-03-31 15:24:00,62.0,40.0,-100.00,WSW,238,11.0,21.0,44,0.00,,,0.00,14.000000,,2013-03-31 22:24:00,
2013-03-31 15:33:00,62.0,40.0,-100.00,WSW,238,11.0,21.0,44,0.00,,,0.00,14.000000,,2013-03-31 22:33:00,
2013-03-31 15:43:00,62.0,40.0,-100.00,WSW,238,11.0,21.0,44,0.00,,,0.00,14.000000,,2013-03-31 22:43:00,
2013-03-31 15:53:00,62.0,40.0,-100.00,WSW,238,11.0,21.0,44,0.00,,,0.00,14.000000,,2013-03-31 22:53:00,
2013-03-31 16:02:00,62.0,40.0,-100.00,WSW,238,11.0,21.0,44,0.00,,,0.00,14.000000,,2013-03-31 23:02:00,
2013-03-31 16:33:00,64.0,37.0,-100.00,East,95,8.0,22.0,37,0.00,,,0.00,412.000000,,2013-03-31 23:33:00,
2013-03-31 16:43:00,64.0,37.0,-100.00,East,95,8.0,22.0,37,0.00,,,0.00,412.000000,,2013-03-31 23:43:00,
2013-03-31 16:53:00,64.0,37.0,-100.00,East,95,8.0,22.0,37,0.00,,,0.00,412.000000,,2013-03-31 23:53:00,
2013-03-31 17:02:00,64.0,37.0,-100.00,East,95,8.0,22.0,37,0.00,,,0.00,412.000000,,2013-04-01 00:02:00,
2013-03-31 17:22:00,60.0,43.0,-100.00,West,265,10.0,18.0,53,0.00,,,0.00,0.000000,,2013-04-01 00:22:00,
2013-03-31 17:32:00,60.0,43.0,-100.00,West,265,10.0,18.0,53,0.00,,,0.00,0.000000,,2013-04-01 00:32:00,
2013-03-31 17:43:00,60.0,43.0,-100.00,West,265,10.0,18.0,53,0.00,,,0.00,0.000000,,2013-04-01 00:43:00,
2013-03-31 17:52:00,60.0,43.0,-100.00,West,265,10.0,18.0,53,0.00,,,0.00,0.000000,,2013-04-01 00:52:00,
2013-03-31 18:02:00,60.0,43.0,-100.00,West,265,10.0,18.0,53,0.00,,,0.00,0.000000,,2013-04-01 01:02:00,
2013-03-31 18:33:00,57.0,44.0,-100.00,SW,226,6.0,19.0,61,0.00,,,0.00,17.000000,,2013-04-01 01:33:00,
2013-03-31 18:43:00,57.0,44.0,-100.00,SW,226,6.0,19.0,61,0.00,,,0.00,17.000000,,2013-04-01 01:43:00,
2013-03-31 18:52:00,57.0,44.0,-100.00,SW,226,6.0,19.0,61,0.00,,,0.00,17.000000,,2013-04-01 01:52:00,
2013-03-31 19:02:00,57.0,44.0,-100.00,SW,226,6.0,19.0,61,0.00,,,0.00,17.000000,,2013-04-01 02:02:00,
2013-03-31 19:33:00,52.0,46.0,-100.00,WSW,249,6.0,17.0,80,0.00,,,0.00,0.000000,,2013-04-01 02:33:00,
2013-03-31 19:42:00,52.0,46.0,-100.00,WSW,249,6.0,17.0,80,0.00,,,0.00,0.000000,,2013-04-01 02:42:00,
2013-03-31 19:53:00,52.0,46.0,-100.00,WSW,249,6.0,17.0,80,0.00,,,0.00,0.000000,,2013-04-01 02:53:00,
2013-03-31 20:02:00,52.0,46.0,-100.00,WSW,249,6.0,17.0,80,0.00,,,0.00,0.000000,,2013-04-01 03:02:00,
2013-03-31 20:35:00,49.0,46.0,-100.00,WSW,251,5.0,12.0,88,0.00,,,0.00,0.000000,,2013-04-01 03:35:00,
2013-03-31 20:43:00,49.0,46.0,-100.00,WSW,251,5.0,12.0,88,0.00,,,0.00,0.000000,,2013-04-01 03:43:00,
2013-03-31 20:53:00,49.0,46.0,-100.00,WSW,251,5.0,12.0,88,0.00,,,0.00,0.000000,,2013-04-01 03:53:00,
2013-03-31 21:02:00,49.0,46.0,-100.00,WSW,251,5.0,12.0,88,0.00,,,0.00,0.000000,,2013-04-01 04:02:00,
2013-03-31 21:33:00,48.0,44.0,-100.00,WNW,288,1.0,10.0,87,0.00,,,0.00,0.000000,,2013-04-01 04:33:00,
2013-03-31 21:43:00,48.0,44.0,-100.00,WNW,288,1.0,10.0,87,0.00,,,0.00,0.000000,,2013-04-01 04:43:00,
2013-03-31 21:53:00,48.0,44.0,-100.00,WNW,288,1.0,10.0,87,0.00,,,0.00,0.000000,,2013-04-01 04:53:00,
2013-03-31 22:02:00,48.0,44.0,-100.00,WNW,288,1.0,10.0,87,0.00,,,0.00,0.000000,,2013-04-01 05:02:00,
2013-03-31 22:33:00,48.0,43.0,-100.00,WNW,292,4.0,12.0,83,0.00,,,0.00,0.000000,,2013-04-01 05:33:00,
2013-03-31 22:43:00,48.0,43.0,-100.00,WNW,292,4.0,12.0,83,0.00,,,0.00,0.000000,,2013-04-01 05:43:00,
2013-03-31 22:53:00,48.0,43.0,-100.00,WNW,292,4.0,12.0,83,0.00,,,0.00,0.000000,,2013-04-01 05:53:00,
2013-03-31 23:01:00,48.0,43.0,-100.00,WNW,292,4.0,12.0,83,0.00,,,0.00,0.000000,,2013-04-01 06:01:00,
2013-03-31 23:23:00,46.0,42.0,-100.00,WNW,285,0.0,9.0,87,0.00,,,0.00,0.000000,,2013-04-01 06:23:00,
2013-03-31 23:33:00,46.0,42.0,-100.00,WNW,285,0.0,9.0,87,0.00,,,0.00,0.000000,,2013-04-01 06:33:00,
2013-03-31 23:43:00,46.0,42.0,-100.00,WNW,285,0.0,9.0,87,0.00,,,0.00,0.000000,,2013-04-01 06:43:00,
2013-03-31 23:52:00,46.0,42.0,-100.00,WNW,285,0.0,9.0,87,0.00,,,0.00,0.000000,,2013-04-01 06:52:00,